�������l�o���
Date,Time,MP-1(��Sv/h),MP-2(��Sv/h),MP-3(��Sv/h),MP-4(��Sv/h),MP-5(��Sv/h),MP-6(��Sv/h),MP-7(��Sv/h),MP-8(��Sv/h),����,����(m/s),���J
2019/02/01,00:00,0.781,1.158,0.810,1.490,1.066,0.448,0.797,0.753,�k�k��,6.9,��
2019/02/01,00:10,0.781,1.158,0.809,1.492,1.066,0.446,0.798,0.754,�k�k��,6.2,��
2019/02/01,00:20,0.780,1.159,0.810,1.489,1.065,0.447,0.797,0.754,�k�k��,7.3,��
2019/02/01,00:30,0.781,1.157,0.811,1.492,1.065,0.448,0.797,0.753,�k�k��,6.2,��
2019/02/01,00:40,0.781,1.159,0.811,1.492,1.068,0.448,0.797,0.754,�k�k��,4.9,��
2019/02/01,00:50,0.780,1.162,0.810,1.492,1.068,0.447,0.797,0.752,�k�k��,3.6,��
2019/02/01,01:00,0.781,1.160,0.810,1.492,1.066,0.448,0.797,0.754,�k��,7.4,��
2019/02/01,01:10,0.781,1.157,0.812,1.489,1.067,0.447,0.799,0.753,�k��,10.9,��
2019/02/01,01:20,0.782,1.158,0.809,1.490,1.067,0.447,0.796,0.755,�k��,8.1,��
2019/02/01,01:30,0.780,1.160,0.810,1.490,1.068,0.447,0.796,0.754,�k��,6.0,��
2019/02/01,01:40,0.780,1.159,0.810,1.491,1.066,0.448,0.797,0.753,�k��,8.4,��
2019/02/01,01:50,0.782,1.160,0.810,1.492,1.068,0.445,0.796,0.752,�k��,7.8,��
2019/02/01,02:00,0.781,1.161,0.809,1.492,1.068,0.445,0.798,0.754,�k��,7.9,��
2019/02/01,02:10,0.780,1.160,0.810,1.493,1.066,0.446,0.796,0.753,�k��,10.2,��
2019/02/01,02:20,0.780,1.159,0.809,1.491,1.067,0.445,0.797,0.754,�k��,7.7,��
2019/02/01,02:30,0.780,1.160,0.810,1.487,1.067,0.446,0.798,0.755,�k��,9.2,��
2019/02/01,02:40,0.779,1.158,0.808,1.488,1.066,0.444,0.798,0.752,�k��,8.3,��
2019/02/01,02:50,0.780,1.160,0.808,1.491,1.066,0.445,0.797,0.755,�k��,9.9,��
2019/02/01,03:00,0.779,1.159,0.808,1.492,1.065,0.447,0.797,0.752,�k��,8.6,��
2019/02/01,03:10,0.781,1.158,0.808,1.493,1.066,0.446,0.796,0.752,�k��,8.3,��
2019/02/01,03:20,0.779,1.156,0.809,1.492,1.066,0.447,0.797,0.753,�k��,8.1,��
2019/02/01,03:30,0.781,1.157,0.808,1.490,1.066,0.446,0.798,0.752,�k��,7.4,��
2019/02/01,03:40,0.778,1.158,0.808,1.490,1.067,0.447,0.797,0.754,�k�k��,6.2,��
2019/02/01,03:50,0.780,1.155,0.808,1.493,1.068,0.446,0.797,0.753,�k��,4.5,��
2019/02/01,04:00,0.779,1.155,0.809,1.493,1.068,0.448,0.798,0.753,�k��,3.3,��
2019/02/01,04:10,0.778,1.157,0.807,1.491,1.066,0.449,0.796,0.752,�k��,4.1,��
2019/02/01,04:20,0.780,1.157,0.809,1.492,1.066,0.449,0.796,0.753,�k��,5.5,��
2019/02/01,04:30,0.778,1.158,0.808,1.490,1.067,0.447,0.797,0.754,�k��,4.9,��
2019/02/01,04:40,0.778,1.160,0.809,1.490,1.065,0.447,0.797,0.754,�k��,5.5,��
2019/02/01,04:50,0.779,1.158,0.809,1.490,1.064,0.448,0.798,0.754,�k��,7.7,��
2019/02/01,05:00,0.780,1.160,0.808,1.489,1.068,0.448,0.796,0.753,�k��,9.2,��
2019/02/01,05:10,0.778,1.157,0.808,1.491,1.063,0.447,0.795,0.753,�k��,8.3,��
2019/02/01,05:20,0.778,1.158,0.808,1.491,1.066,0.447,0.796,0.753,�k��,7.8,��
2019/02/01,05:30,0.778,1.158,0.808,1.491,1.066,0.447,0.797,0.754,�k��,7.8,��
2019/02/01,05:40,0.776,1.157,0.808,1.490,1.066,0.447,0.796,0.751,�k��,7.0,��
2019/02/01,05:50,0.778,1.156,0.810,1.489,1.067,0.446,0.796,0.752,�k��,6.4,��
2019/02/01,06:00,0.777,1.158,0.809,1.487,1.065,0.446,0.796,0.754,�k��,7.4,��
2019/02/01,06:10,0.779,1.155,0.809,1.491,1.064,0.446,0.794,0.754,�k��,6.1,��
2019/02/01,06:20,0.778,1.159,0.809,1.491,1.062,0.447,0.795,0.753,���k��,5.2,��
2019/02/01,06:30,0.781,1.156,0.809,1.489,1.062,0.446,0.795,0.751,�k��,7.2,��
2019/02/01,06:40,0.780,1.158,0.807,1.493,1.065,0.446,0.797,0.752,�k��,7.9,��
2019/02/01,06:50,0.777,1.156,0.809,1.490,1.064,0.446,0.795,0.754,�k��,7.3,��
2019/02/01,07:00,0.779,1.158,0.808,1.490,1.063,0.446,0.796,0.751,�k��,6.1,��
2019/02/01,07:10,0.779,1.157,0.809,1.491,1.064,0.447,0.796,0.754,�k�k��,4.9,��
2019/02/01,07:20,0.778,1.156,0.808,1.492,1.064,0.447,0.795,0.751,�k��,5.0,��
2019/02/01,07:30,0.778,1.156,0.809,1.489,1.063,0.446,0.796,0.752,�k��,2.9,��
2019/02/01,07:40,0.779,1.157,0.809,1.490,1.065,0.447,0.795,0.754,���k��,3.8,��
2019/02/01,07:50,0.778,1.157,0.809,1.491,1.066,0.446,0.796,0.754,�k��,3.7,��
2019/02/01,08:00,0.777,1.161,0.807,1.492,1.063,0.446,0.796,0.753,�k��,5.5,��
2019/02/01,08:10,0.781,1.157,0.808,1.492,1.062,0.447,0.796,0.752,���k��,6.0,��
2019/02/01,08:20,0.778,1.158,0.810,1.491,1.063,0.447,0.797,0.751,�k��,6.7,��
2019/02/01,08:30,0.780,1.156,0.810,1.492,1.064,0.446,0.796,0.755,���k��,5.3,��
2019/02/01,08:40,0.780,1.157,0.809,1.491,1.064,0.445,0.796,0.752,���k��,5.5,��
2019/02/01,08:50,0.782,1.156,0.809,1.491,1.063,0.446,0.796,0.753,���k��,5.1,��
2019/02/01,09:00,0.780,1.154,0.808,1.490,1.064,0.447,0.797,0.754,���k��,5.4,��
2019/02/01,09:10,0.780,1.153,0.808,1.488,1.065,0.446,0.798,0.754,���k��,3.9,��
2019/02/01,09:20,0.781,1.155,0.806,1.491,1.063,0.447,0.797,0.753,��,5.4,��
2019/02/01,09:30,0.781,1.155,0.807,1.493,1.065,0.446,0.796,0.755,�k��,4.6,��
2019/02/01,09:40,0.782,1.155,0.806,1.492,1.065,0.447,0.797,0.753,�k��,7.4,��
2019/02/01,09:50,0.781,1.154,0.806,1.492,1.065,0.447,0.798,0.753,�k��,6.5,��
2019/02/01,10:00,0.781,1.154,0.807,1.493,1.068,0.447,0.794,0.753,�k��,5.2,��
2019/02/01,10:10,0.782,1.156,0.808,1.492,1.068,0.446,0.798,0.752,�k��,4.8,��
2019/02/01,10:20,0.781,1.153,0.805,1.492,1.066,0.446,0.797,0.753,���k��,4.1,��
2019/02/01,10:30,0.782,1.155,0.806,1.494,1.067,0.449,0.797,0.755,���k��,4.1,��
2019/02/01,10:40,0.780,1.156,0.807,1.492,1.067,0.447,0.799,0.752,�k��,6.4,��
2019/02/01,10:50,0.782,1.155,0.806,1.494,1.066,0.446,0.798,0.753,�k��,8.0,��
2019/02/01,11:00,0.781,1.157,0.809,1.490,1.069,0.447,0.798,0.752,�k��,6.0,��
2019/02/01,11:10,0.781,1.155,0.810,1.492,1.068,0.447,0.797,0.753,�k��,3.0,��
2019/02/01,11:20,0.782,1.157,0.807,1.493,1.069,0.449,0.795,0.754,�k�k��,3.9,��
2019/02/01,11:30,0.781,1.158,0.804,1.493,1.068,0.446,0.796,0.752,�k�k��,3.5,��
2019/02/01,11:40,0.783,1.160,0.809,1.493,1.068,0.448,0.798,0.753,�k�k��,5.2,��
2019/02/01,11:50,0.782,1.158,0.808,1.495,1.068,0.449,0.795,0.755,�k�k��,4.7,��
2019/02/01,12:00,0.782,1.161,0.809,1.495,1.070,0.447,0.795,0.755,�k�k��,5.4,��
2019/02/01,12:10,0.784,1.159,0.810,1.495,1.068,0.447,0.794,0.755,�k�k��,6.2,��
2019/02/01,12:20,0.783,1.160,0.811,1.494,1.068,0.449,0.792,0.752,�k�k��,7.5,��
2019/02/01,12:30,0.781,1.159,0.810,1.493,1.069,0.448,0.794,0.753,�k��,5.6,��
2019/02/01,12:40,0.784,1.159,0.808,1.496,1.070,0.446,0.795,0.754,�k�k��,5.7,��
2019/02/01,12:50,0.781,1.155,0.809,1.494,1.069,0.447,0.795,0.755,�k��,5.9,��
2019/02/01,13:00,0.782,1.158,0.807,1.497,1.071,0.446,0.795,0.754,�k��,5.9,��
2019/02/01,13:10,0.782,1.155,0.807,1.496,1.069,0.448,0.795,0.755,�k��,6.0,��
2019/02/01,13:20,0.781,1.155,0.808,1.494,1.070,0.448,0.796,0.752,�k��,6.0,��
2019/02/01,13:30,0.782,1.152,0.809,1.494,1.070,0.447,0.796,0.754,�k��,8.4,��
2019/02/01,13:40,0.783,1.154,0.808,1.494,1.069,0.445,0.797,0.754,�k��,7.3,��
2019/02/01,13:50,0.782,1.154,0.812,1.494,1.070,0.445,0.796,0.754,�k��,5.3,��
2019/02/01,14:00,0.781,1.152,0.809,1.493,1.067,0.448,0.797,0.756,�k�k��,4.3,��
2019/02/01,14:10,0.783,1.154,0.809,1.493,1.070,0.447,0.798,0.755,�k��,3.1,��
2019/02/01,14:20,0.782,1.154,0.808,1.494,1.068,0.447,0.797,0.754,�k��,4.5,��
2019/02/01,14:30,0.781,1.153,0.809,1.495,1.069,0.447,0.798,0.756,�k��,6.3,��
2019/02/01,14:40,0.783,1.153,0.810,1.498,1.070,0.450,0.796,0.752,�k��,6.3,��
2019/02/01,14:50,0.782,1.157,0.809,1.494,1.070,0.447,0.797,0.753,�k��,6.2,��
2019/02/01,15:00,0.784,1.158,0.810,1.493,1.070,0.448,0.800,0.755,�k��,4.2,��
2019/02/01,15:10,0.782,1.157,0.812,1.498,1.069,0.447,0.797,0.754,���k��,2.9,��
2019/02/01,15:20,0.783,1.157,0.809,1.494,1.068,0.447,0.796,0.753,��,6.0,��
2019/02/01,15:30,0.784,1.157,0.810,1.495,1.069,0.448,0.798,0.752,��,6.6,��
2019/02/01,15:40,0.783,1.159,0.810,1.495,1.070,0.447,0.796,0.755,��,7.5,��
2019/02/01,15:50,0.783,1.160,0.811,1.496,1.068,0.446,0.797,0.752,��,7.9,��
2019/02/01,16:00,0.783,1.160,0.809,1.491,1.066,0.447,0.796,0.753,��,7.6,��
2019/02/01,16:10,0.783,1.163,0.809,1.496,1.068,0.446,0.797,0.751,��,7.1,��
2019/02/01,16:20,0.781,1.159,0.812,1.493,1.067,0.447,0.796,0.753,��,7.2,��
2019/02/01,16:30,0.782,1.161,0.808,1.494,1.069,0.447,0.798,0.754,��,6.6,��
2019/02/01,16:40,0.779,1.160,0.808,1.496,1.069,0.448,0.795,0.754,��,6.9,��
2019/02/01,16:50,0.781,1.163,0.811,1.494,1.067,0.447,0.796,0.752,��,6.0,��
2019/02/01,17:00,0.781,1.158,0.809,1.497,1.069,0.447,0.798,0.755,���k��,7.0,��
2019/02/01,17:10,0.783,1.160,0.809,1.493,1.067,0.447,0.797,0.754,��,4.3,��
2019/02/01,17:20,0.780,1.160,0.807,1.494,1.071,0.446,0.796,0.752,��,4.0,��
2019/02/01,17:30,0.780,1.162,0.809,1.493,1.070,0.447,0.795,0.753,���쐼,3.4,��
2019/02/01,17:40,0.781,1.163,0.809,1.492,1.068,0.450,0.794,0.754,���쐼,4.4,��
2019/02/01,17:50,0.780,1.160,0.809,1.494,1.068,0.447,0.793,0.751,��,5.0,��
2019/02/01,18:00,0.782,1.161,0.808,1.495,1.068,0.447,0.797,0.752,��,4.7,��
2019/02/01,18:10,0.781,1.160,0.807,1.494,1.068,0.446,0.794,0.753,��,5.5,��
2019/02/01,18:20,0.780,1.160,0.809,1.493,1.067,0.447,0.796,0.752,��,5.8,��
2019/02/01,18:30,0.780,1.163,0.808,1.493,1.067,0.448,0.795,0.753,��,4.7,��
2019/02/01,18:40,0.780,1.160,0.809,1.494,1.069,0.448,0.795,0.752,��,4.6,��
2019/02/01,18:50,0.780,1.159,0.808,1.494,1.066,0.447,0.796,0.751,��,4.2,��
2019/02/01,19:00,0.780,1.161,0.808,1.494,1.067,0.447,0.795,0.750,��,5.1,��
2019/02/01,19:10,0.781,1.163,0.809,1.496,1.064,0.448,0.795,0.752,���k��,5.8,��
2019/02/01,19:20,0.781,1.162,0.808,1.493,1.066,0.446,0.795,0.752,���k��,4.6,��
2019/02/01,19:30,0.779,1.159,0.809,1.493,1.067,0.446,0.795,0.754,���k��,3.7,��
2019/02/01,19:40,0.779,1.157,0.809,1.493,1.067,0.447,0.795,0.752,�k��,2.6,��
2019/02/01,19:50,0.778,1.159,0.809,1.495,1.068,0.447,0.795,0.752,�k,1.2,��
2019/02/01,20:00,0.779,1.159,0.808,1.494,1.065,0.448,0.796,0.752,�k��,2.2,��
2019/02/01,20:10,0.781,1.161,0.807,1.494,1.067,0.447,0.794,0.751,���쓌,1.7,��
2019/02/01,20:20,0.780,1.160,0.808,1.494,1.064,0.446,0.792,0.753,��,2.2,��
2019/02/01,20:30,0.779,1.161,0.808,1.496,1.065,0.447,0.793,0.755,���k��,1.9,��
2019/02/01,20:40,0.779,1.161,0.807,1.492,1.065,0.447,0.793,0.752,-,CALM,��
2019/02/01,20:50,0.778,1.160,0.808,1.495,1.065,0.448,0.794,0.753,�k��,2.0,��
2019/02/01,21:00,0.780,1.159,0.808,1.495,1.063,0.448,0.795,0.753,�k��,0.6,��
2019/02/01,21:10,0.779,1.161,0.808,1.495,1.066,0.447,0.794,0.751,�쐼,1.5,��
2019/02/01,21:20,0.778,1.161,0.809,1.493,1.063,0.446,0.794,0.752,��,2.2,��
2019/02/01,21:30,0.779,1.157,0.810,1.496,1.066,0.447,0.794,0.751,��쐼,2.6,��
2019/02/01,21:40,0.779,1.158,0.808,1.493,1.067,0.447,0.794,0.753,��,3.2,��
2019/02/01,21:50,0.779,1.159,0.808,1.491,1.064,0.448,0.793,0.750,��쐼,3.3,��
2019/02/01,22:00,0.777,1.158,0.806,1.493,1.066,0.446,0.795,0.752,��쐼,2.0,��
2019/02/01,22:10,0.779,1.160,0.807,1.493,1.066,0.446,0.794,0.751,��쓌,2.3,��
2019/02/01,22:20,0.780,1.157,0.810,1.495,1.068,0.446,0.795,0.750,��쐼,3.6,��
2019/02/01,22:30,0.778,1.160,0.809,1.494,1.068,0.447,0.793,0.752,�쓌,1.2,��
2019/02/01,22:40,0.780,1.159,0.806,1.492,1.066,0.446,0.793,0.751,��쐼,2.3,��
2019/02/01,22:50,0.779,1.159,0.808,1.494,1.065,0.447,0.793,0.751,��,2.6,��
2019/02/01,23:00,0.777,1.161,0.805,1.493,1.066,0.445,0.794,0.752,��쐼,2.6,��
2019/02/01,23:10,0.779,1.158,0.808,1.493,1.067,0.447,0.793,0.752,���k��,0.9,��
2019/02/01,23:20,0.777,1.159,0.808,1.494,1.064,0.445,0.795,0.752,��,1.7,��
2019/02/01,23:30,0.779,1.158,0.808,1.491,1.066,0.447,0.793,0.752,��쓌,0.9,��
2019/02/01,23:40,0.779,1.157,0.809,1.494,1.065,0.445,0.794,0.750,�k��,0.6,��
2019/02/01,23:50,0.779,1.157,0.810,1.494,1.064,0.446,0.794,0.751,�k�k��,2.5,��
